Flag for Ukraine Weather past 2 weeks in Kyiv, Ukraine

Now
72 °F

Passing clouds.


Feels Like: 77 °F
Forecast: 60 / 82 °F
Wind: 6 mph from Southwest

Location: Kyiv

Current Time: May 24, 2015 at 9:03:37 AM

Latest Report: May 24, 2015 at 8:30 AM


Visibility: N/A

Pressure: 29.89 "Hg

Humidity: 44%

Dew point: 48 °F

Location of KyivLocation

Historic Weather in Kyiv — Graph

°F

Kyiv temperature yesterday

Maximum temperature yesterday: 81 °F (at 1:30 PM)
Minimum temperature yesterday: 55 °F (at 4:30 AM)
Average temperature yesterday: 72 °F

Past Weeks' High & Low Weather Summary

 TemperatureHumidityPressure
High82 °F (May 20, 4:30 PM)100% (May 13, 4:30 AM)30.24 "Hg (May 13, 4:30 AM)
Low39 °F (May 19, 5:00 AM)27% (May 11, 7:30 PM)29.47 "Hg (May 15, 4:00 AM)
Average61 °F59%29.97 "Hg
* Reported May 9 8:00 AM — May 24 8:00 AM, Kyiv, Weather by CustomWeather, © 2015

Note: Actual official high and low records may vary slightly from our data, if they occured in-between our weather recording intervals... More about our weather records

Advertising

Kyiv weather history for previous 24 hours

 ConditionsComfort  
Time TempWeatherWind HumidityBarometerVisibility
8:00 AM
Sun, May 24
70 °FPassing clouds.3 mph46%29.89 "HgN/A
7:30 AM68 °FPassing clouds.3 mph49%29.89 "HgN/A
7:00 AM66 °FSunny.1 mph52%29.89 "Hg10 mi
6:30 AM63 °FSunny.1 mph68%29.89 "Hg10 mi
6:00 AM59 °FSunny.1 mph72%29.89 "Hg10 mi
5:30 AM59 °FClear.No wind72%29.89 "Hg10 mi
5:00 AM59 °FClear.No wind68%29.86 "Hg10 mi
4:30 AM59 °FClear.1 mph68%29.89 "Hg10 mi
4:00 AM61 °FClear.No wind59%29.89 "Hg10 mi
3:30 AM63 °FClear.No wind56%29.89 "Hg10 mi
3:00 AM68 °FPassing clouds.3 mph46%29.89 "HgN/A
2:30 AM68 °FPassing clouds.3 mph43%29.89 "HgN/A
2:00 AM70 °FPassing clouds.3 mph43%29.89 "HgN/A
1:30 AM70 °FPassing clouds.3 mph43%29.89 "HgN/A
1:00 AM68 °FPassing clouds.3 mph46%29.92 "HgN/A
12:30 AM70 °FClear.3 mph43%29.92 "Hg10 mi
12:00 AM72 °FPassing clouds.3 mph41%29.92 "HgN/A
11:30 PM
Sat, May 23
72 °FClear.3 mph44%29.92 "Hg10 mi
11:00 PM72 °FClear.3 mph44%29.92 "Hg10 mi
10:30 PM72 °FPassing clouds.3 mph47%29.92 "HgN/A
10:00 PM73 °FClear.3 mph44%29.92 "Hg10 mi
9:30 PM73 °FSunny.3 mph44%29.92 "Hg10 mi
9:00 PM73 °FSunny.3 mph47%29.92 "Hg10 mi
8:30 PM75 °FSunny.3 mph44%29.92 "Hg10 mi
8:00 PM77 °FPassing clouds.6 mph39%29.92 "HgN/A
7:30 PM79 °FSunny.6 mph37%29.92 "Hg10 mi
7:00 PM81 °FSunny.6 mph37%29.92 "Hg10 mi
6:30 PM79 °FPassing clouds.8 mph39%29.92 "HgN/A
6:00 PM81 °FPassing clouds.6 mph34%29.92 "HgN/A
5:30 PM81 °FPassing clouds.3 mph34%29.92 "HgN/A
5:00 PM81 °FPassing clouds.3 mph34%29.92 "HgN/A
4:30 PM81 °FSunny.6 mph34%29.95 "Hg10 mi
4:00 PM81 °FSunny.8 mph37%29.95 "Hg10 mi
3:30 PM81 °FPassing clouds.3 mph32%29.95 "HgN/A
3:00 PM81 °FPassing clouds.3 mph34%29.95 "HgN/A
2:30 PM81 °FPassing clouds.6 mph37%29.98 "HgN/A
2:00 PM81 °FPassing clouds.3 mph37%29.98 "HgN/A
1:30 PM81 °FSunny.6 mph37%29.98 "Hg10 mi
1:00 PM79 °FPassing clouds.3 mph37%29.98 "HgN/A
12:30 PM79 °FPassing clouds.6 mph39%30.01 "HgN/A
12:00 PM77 °FPassing clouds.3 mph47%30.01 "HgN/A
11:30 AM75 °FSunny.3 mph54%30.01 "Hg10 mi
11:00 AM75 °FPassing clouds.3 mph57%30.01 "HgN/A
10:30 AM73 °FPassing clouds.3 mph61%30.01 "HgN/A
10:00 AM72 °FPassing clouds.3 mph61%30.04 "HgN/A
9:30 AM72 °FPassing clouds.3 mph65%30.04 "HgN/A
9:00 AM70 °FPassing clouds.3 mph69%30.01 "HgN/A
Weather by CustomWeather, © 2015

See weather overviewHow to use our weather pages